| time (UTC) | temp F | wind direction | speed MPH | gust MPH | rain 1hr in | rain 24hr in | rain mn in | humidity % | barometer mb |
| 20260902134437 | 74 | 191 | 1.0 | 2.0 | 0.02 | 0.09 | 0.10 | 58 | 1020.1 |
| 20260902133437 | 70 | 294 | 0.0 | 1.0 | 0.10 | 0.09 | 0.10 | 65 | 1020.3 |
| 20260902132437 | 70 | 117 | 0.0 | 2.0 | 0.10 | 0.09 | 0.10 | 68 | 1020.2 |
| 20260902131922 | 66 | 117 | 0.0 | 1.0 | 0.09 | 0.09 | 0.09 | 80 | 1020.1 |
| 20260902130437 | 65 | 70 | 0.0 | 0.0 | 0.09 | 0.09 | 0.09 | 83 | 1020.3 |
| 20260902125437 | 66 | 44 | 0.0 | 3.0 | 0.09 | 0.00 | 0.09 | 79 | 1020.3 |
| 20260902124437 | 67 | 143 | 2.0 | 3.0 | 0.08 | 0.00 | 0.08 | 76 | 1020.5 |
| 20260902123437 | 71 | 135 | 0.0 | 2.0 | 0.00 | 0.00 | 0.00 | 61 | 1020.3 |
| 20260902122437 | 74 | 44 | 0.0 | 6.0 | 0.00 | 0.00 | 0.00 | 57 | 1020.3 |
| 20260902121437 | 78 | 93 | 1.0 | 4.0 | 0.00 | 0.00 | 0.00 | 46 | 1019.8 |
| 20260902120436 | 79 | 291 | 3.0 | 4.0 | 0.00 | 0.00 | 0.00 | 45 | 1019.8 |
| 20260902115437 | 77 | 315 | 0.0 | 5.0 | 0.00 | 0.00 | 0.00 | 46 | 1020.2 |
| 20260902114922 | 76 | 273 | 0.0 | 6.0 | 0.00 | 0.00 | 0.00 | 47 | 1020.3 |
| 20260902113437 | 78 | 299 | 0.0 | 4.0 | 0.00 | 0.00 | 0.00 | 47 | 1020.3 |
| 20260902112437 | 76 | 301 | 2.0 | 3.0 | 0.00 | 0.00 | 0.00 | 48 | 1020.5 |
| 20260902111437 | 77 | 75 | 2.0 | 5.0 | 0.00 | 0.00 | 0.00 | 48 | 1020.6 |
| 20260902110917 | 76 | 275 | 1.0 | 3.0 | 0.00 | 0.00 | 0.00 | 49 | 1020.6 |
| 20260902110353 | 77 | 107 | 0.0 | 4.0 | 0.00 | 0.00 | 0.00 | 50 | 1020.6 |
| 20260902104437 | 73 | 118 | 0.0 | 3.0 | 0.00 | 0.00 | 0.00 | 52 | 1020.8 |
| 20260902103437 | 75 | 287 | 0.0 | 3.0 | 0.00 | 0.00 | 0.00 | 50 | 1020.7 |
| 20260902102440 | 76 | 164 | 0.0 | 4.0 | 0.00 | 0.00 | 0.00 | 52 | 1020.8 |
| 20260902101436 | 76 | 307 | 0.0 | 3.0 | 0.00 | 0.00 | 0.00 | 52 | 1020.9 |
| 20260902100437 | 77 | 261 | 2.0 | 4.0 | 0.00 | 0.00 | 0.00 | 51 | 1020.9 |
| 20260902095436 | 75 | 247 | 0.0 | 4.0 | 0.00 | 0.00 | 0.00 | 53 | 1021.1 |
| 20260902094437 | 74 | 110 | 1.0 | 4.0 | 0.00 | 0.00 | 0.00 | 54 | 1021.2 |
| 20260902093437 | 74 | 88 | 0.0 | 4.0 | 0.00 | 0.00 | 0.00 | 55 | 1021.2 |
| 20260902092437 | 74 | 358 | 0.0 | 3.0 | 0.00 | 0.00 | 0.00 | 54 | 1021.2 |
| 20260902091437 | 71 | 164 | 0.0 | 6.0 | 0.00 | 0.00 | 0.00 | 56 | 1021.3 |
| 20260902090437 | 72 | 100 | 2.0 | 4.0 | 0.00 | 0.00 | 0.00 | 56 | 1021.4 |
| 20260902085437 | 72 | 291 | 1.0 | 4.0 | 0.00 | 0.00 | 0.00 | 55 | 1021.5 |
| 20260902084915 | 72 | 203 | 0.0 | 3.0 | 0.00 | 0.00 | 0.00 | 55 | 1021.4 |
| 20260902083436 | 73 | 2 | 1.0 | 3.0 | 0.00 | 0.00 | 0.00 | 54 | 1021.4 |
| 20260902082437 | 72 | 114 | 1.0 | 2.0 | 0.00 | 0.00 | 0.00 | 56 | 1021.5 |
| 20260902081436 | 70 | 128 | 0.0 | 3.0 | 0.00 | 0.00 | 0.00 | 56 | 1021.4 |
| 20260902080437 | 69 | 63 | 1.0 | 3.0 | 0.00 | 0.00 | 0.00 | 59 | 1021.3 |
| 20260902075436 | 68 | 273 | 0.0 | 3.0 | 0.00 | 0.00 | 0.00 | 61 | 1021.3 |
| 20260902074919 | 67 | 304 | 0.0 | 3.0 | 0.00 | 0.00 | 0.00 | 62 | 1021.3 |
| 20260902073437 | 67 | 99 | 0.0 | 2.0 | 0.00 | 0.00 | 0.00 | 62 | 1021.3 |
| 20260902072437 | 67 | 250 | 0.0 | 3.0 | 0.00 | 0.00 | 0.00 | 64 | 1021.1 |
| 20260902071437 | 66 | 297 | 0.0 | 3.0 | 0.00 | 0.00 | 0.00 | 64 | 1021.2 |
| 20260902070919 | 66 | 60 | 0.0 | 2.0 | 0.00 | 0.00 | 0.00 | 65 | 1021.2 |
| 20260902065437 | 65 | 286 | 0.0 | 3.0 | 0.00 | 0.00 | 0.00 | 67 | 1021.1 |
| 20260902064437 | 64 | 77 | 3.0 | 5.0 | 0.00 | 0.00 | 0.00 | 71 | 1020.9 |
| 20260902063437 | 62 | 152 | 3.0 | 5.0 | 0.00 | 0.00 | 0.00 | 73 | 1021.2 |
| 20260902062437 | 62 | 303 | 0.0 | 4.0 | 0.00 | 0.00 | 0.00 | 73 | 1021.1 |
| 20260902061920 | 60 | 356 | 0.0 | 3.0 | 0.00 | 0.00 | 0.00 | 76 | 1021.1 |
| 20260902060436 | 60 | 154 | 1.0 | 3.0 | 0.00 | 0.00 | 0.00 | 80 | 1020.9 |
| 20260902055437 | 58 | 319 | 1.0 | 4.0 | 0.00 | 0.00 | 0.00 | 82 | 1020.9 |
| 20260902054437 | 58 | 243 | 2.0 | 3.0 | 0.00 | 0.00 | 0.00 | 83 | 1021.0 |
| 20260902053437 | 56 | 269 | 1.0 | 3.0 | 0.00 | 0.00 | 0.00 | 86 | 1020.9 |
| 20260902052916 | 55 | 83 | 0.0 | 2.0 | 0.00 | 0.00 | 0.00 | 88 | 1021.0 |
| 20260902051437 | 55 | 86 | 1.0 | 2.0 | 0.00 | 0.00 | 0.00 | 89 | 1020.8 |
| 20260902050441 | 54 | 122 | 2.0 | 2.0 | 0.00 | 0.00 | 0.00 | 90 | 1020.7 |
| 20260902045436 | 54 | 15 | 0.0 | 3.0 | 0.00 | 0.00 | 0.00 | 91 | 1020.8 |
| 20260902044437 | 54 | 352 | 0.0 | 3.0 | 0.00 | 0.00 | 0.00 | 91 | 1020.7 |
| 20260902043437 | 54 | 178 | 2.0 | 2.0 | 0.00 | 0.00 | 0.00 | 91 | 1020.7 |
| 20260902042438 | 53 | 131 | 1.0 | 2.0 | 0.00 | 0.00 | 0.00 | 91 | 1020.6 |
| 20260902042407 | 53 | 138 | 0.0 | 2.0 | 0.00 | 0.00 | 0.00 | 91 | 1020.4 |
| 20260902040928 | 53 | 135 | 0.0 | 3.0 | 0.00 | 0.00 | 0.00 | 91 | 1020.5 |
| 20260902035437 | 53 | 315 | 0.0 | 3.0 | 0.00 | 0.00 | 0.00 | 91 | 1020.6 |
| 20260902034437 | 54 | 257 | 0.0 | 3.0 | 0.00 | 0.01 | 0.00 | 90 | 1020.6 |
| 20260902033437 | 54 | 98 | 2.0 | 3.0 | 0.00 | 0.01 | 0.00 | 90 | 1020.6 |
| 20260902032437 | 54 | 82 | 2.0 | 3.0 | 0.00 | 0.01 | 0.00 | 90 | 1020.6 |
| 20260902031437 | 54 | 303 | 0.0 | 3.0 | 0.00 | 0.01 | 0.00 | 89 | 1020.4 |
| 20260902030437 | 54 | 76 | 0.0 | 4.0 | 0.00 | 0.01 | 0.00 | 89 | 1020.5 |
| 20260902025437 | 54 | 51 | 2.0 | 3.0 | 0.00 | 0.01 | 0.00 | 89 | 1020.1 |
| 20260902024437 | 55 | 129 | 1.0 | 3.0 | 0.00 | 0.01 | 0.00 | 88 | 1020.5 |
| 20260902023437 | 55 | 271 | 0.0 | 4.0 | 0.00 | 0.01 | 0.00 | 88 | 1020.3 |
| 20260902022914 | 55 | 231 | 0.0 | 4.0 | 0.00 | 0.01 | 0.00 | 88 | 1020.5 |
| 20260902021916 | 55 | 35 | 0.0 | 4.0 | 0.00 | 0.01 | 0.00 | 87 | 1020.4 |
| 20260902020921 | 55 | 317 | 0.0 | 4.0 | 0.00 | 0.01 | 0.00 | 87 | 1020.5 |
| 20260902015437 | 55 | 23 | 2.0 | 4.0 | 0.00 | 0.01 | 0.00 | 87 | 1020.4 |
| 20260902014909 | 55 | 198 | 2.0 | 4.0 | 0.00 | 0.01 | 0.00 | 87 | 1020.5 |
| 20260902013437 | 55 | 203 | 1.0 | 4.0 | 0.00 | 0.01 | 0.00 | 87 | 1020.4 |
| 20260902012437 | 55 | 298 | 0.0 | 4.0 | 0.00 | 0.01 | 0.00 | 87 | 1020.5 |
| 20260902011437 | 55 | 193 | 3.0 | 5.0 | 0.00 | 0.01 | 0.00 | 87 | 1020.5 |
| 20260902010911 | 55 | 102 | 0.0 | 4.0 | 0.00 | 0.01 | 0.00 | 86 | 1020.4 |
| 20260902005910 | 56 | 229 | 3.0 | 4.0 | 0.00 | 0.01 | 0.00 | 85 | 1020.4 |
| 20260902004436 | 56 | 175 | 0.0 | 4.0 | 0.00 | 0.01 | 0.00 | 85 | 1020.5 |
| 20260902004400 | 56 | 44 | 0.0 | 1.0 | 0.00 | 0.01 | 0.00 | 85 | 1020.5 |
| 20260902002437 | 56 | 70 | 0.0 | 1.0 | 0.00 | 0.01 | 0.00 | 85 | 1020.4 |
| 20260902001438 | 56 | 95 | 0.0 | 2.0 | 0.00 | 0.01 | 0.00 | 85 | 1020.4 |
| 20260902000437 | 56 | 274 | 0.0 | 2.0 | 0.00 | 0.01 | 0.00 | 85 | 1020.3 |
| 20260901235921 | 56 | 315 | 0.0 | 2.0 | 0.00 | 0.01 | 0.00 | 85 | 1020.3 |
| 20260901234437 | 56 | 316 | 0.0 | 2.0 | 0.00 | 0.01 | 0.00 | 83 | 1020.4 |
| 20260901233436 | 57 | 108 | 0.0 | 2.0 | 0.00 | 0.01 | 0.00 | 81 | 1020.3 |
| 20260901232437 | 57 | 240 | 0.0 | 0.0 | 0.00 | 0.01 | 0.00 | 80 | 1020.2 |
| 20260901231437 | 58 | 62 | 0.0 | 1.0 | 0.00 | 0.01 | 0.00 | 79 | 1020.1 |
| 20260901230437 | 58 | 217 | 0.0 | 0.0 | 0.00 | 0.01 | 0.00 | 79 | 1020.2 |
| 20260901225910 | 58 | 250 | 0.0 | 1.0 | 0.00 | 0.01 | 0.00 | 79 | 1020.1 |
| 20260901224437 | 58 | 44 | 0.0 | 1.0 | 0.00 | 0.01 | 0.00 | 79 | 1020.2 |
| 20260901223437 | 59 | 275 | 0.0 | 0.0 | 0.00 | 0.01 | 0.00 | 77 | 1020.3 |
| 20260901222437 | 60 | 70 | 0.0 | 0.0 | 0.00 | 0.01 | 0.00 | 76 | 1020.1 |
| 20260901221437 | 60 | 76 | 0.0 | 0.0 | 0.00 | 0.01 | 0.00 | 75 | 1020.2 |
| 20260901220437 | 60 | 135 | 0.0 | 0.0 | 0.00 | 0.01 | 0.00 | 76 | 1020.2 |
| 20260901215437 | 60 | 53 | 0.0 | 0.0 | 0.00 | 0.01 | 0.01 | 75 | 1020.4 |
| 20260901214437 | 60 | 117 | 0.0 | 2.0 | 0.00 | 0.01 | 0.01 | 75 | 1020.3 |
| 20260901213436 | 60 | 117 | 0.0 | 2.0 | 0.00 | 0.01 | 0.01 | 74 | 1020.3 |
| 20260901212437 | 60 | 53 | 0.0 | 2.0 | 0.00 | 0.01 | 0.01 | 74 | 1020.4 |
| 20260901211437 | 61 | 269 | 0.0 | 2.0 | 0.00 | 0.01 | 0.01 | 73 | 1020.4 |
| 20260901210437 | 60 | 263 | 0.0 | 1.0 | 0.00 | 0.01 | 0.01 | 74 | 1020.2 |
| 20260901205437 | 61 | 108 | 0.0 | 0.0 | 0.00 | 0.01 | 0.01 | 73 | 1020.2 |
| 20260901204437 | 61 | 52 | 0.0 | 2.0 | 0.00 | 0.01 | 0.01 | 73 | 1019.9 |
| 20260901203918 | 61 | 308 | 0.0 | 2.0 | 0.00 | 0.01 | 0.01 | 72 | 1020.2 |
| 20260901202437 | 61 | 112 | 0.0 | 1.0 | 0.00 | 0.01 | 0.01 | 72 | 1019.9 |
| 20260901201442 | 61 | 96 | 0.0 | 1.0 | 0.00 | 0.01 | 0.01 | 72 | 1019.8 |
| 20260901200436 | 62 | 135 | 0.0 | 0.0 | 0.00 | 0.01 | 0.01 | 71 | 1019.9 |
| 20260901195437 | 62 | 244 | 0.0 | 1.0 | 0.00 | 0.01 | 0.01 | 71 | 1019.9 |
| 20260901194437 | 62 | 135 | 0.0 | 0.0 | 0.00 | 0.01 | 0.01 | 72 | 1019.8 |
| 20260901193437 | 62 | 259 | 0.0 | 0.0 | 0.00 | 0.01 | 0.01 | 71 | 1019.8 |
| 20260901192437 | 63 | 135 | 0.0 | 0.0 | 0.00 | 0.01 | 0.01 | 70 | 1019.7 |
| 20260901191436 | 63 | 288 | 0.0 | 0.0 | 0.00 | 0.01 | 0.01 | 69 | 1020.1 |
| 20260901190437 | 63 | 117 | 0.0 | 1.0 | 0.00 | 0.01 | 0.01 | 69 | 1019.8 |
| 20260901185438 | 63 | 95 | 0.0 | 0.0 | 0.00 | 0.01 | 0.01 | 69 | 1019.7 |
| 20260901184436 | 63 | 53 | 0.0 | 0.0 | 0.00 | 0.01 | 0.01 | 70 | 1019.5 |
| 20260901183919 | 63 | 53 | 0.0 | 0.0 | 0.00 | 0.01 | 0.01 | 70 | 1019.7 |
| 20260901182920 | 64 | 53 | 0.0 | 0.0 | 0.00 | 0.01 | 0.01 | 69 | 1019.8 |
| 20260901181436 | 64 | 82 | 0.0 | 0.0 | 0.00 | 0.01 | 0.01 | 68 | 1019.5 |
| 20260901180438 | 65 | 135 | 0.0 | 0.0 | 0.00 | 0.01 | 0.01 | 67 | 1019.6 |
| 20260901175438 | 65 | 135 | 0.0 | 0.0 | 0.00 | 0.01 | 0.01 | 66 | 1019.5 |
| 20260901174436 | 66 | 44 | 0.0 | 0.0 | 0.00 | 0.01 | 0.01 | 65 | 1019.5 |
| 20260901173437 | 67 | 35 | 0.0 | 0.0 | 0.00 | 0.01 | 0.01 | 63 | 1019.2 |
| 20260901172437 | 67 | 106 | 0.0 | 0.0 | 0.00 | 0.01 | 0.01 | 62 | 1018.9 |
| 20260901171438 | 68 | 62 | 0.0 | 1.0 | 0.00 | 0.01 | 0.01 | 61 | 1019.0 |
| 20260901170437 | 69 | 62 | 0.0 | 2.0 | 0.00 | 0.01 | 0.01 | 59 | 1018.9 |
| 20260901170357 | 69 | 69 | 0.0 | 2.0 | 0.00 | 0.01 | 0.01 | 58 | 1018.8 |
| 20260901164946 | 70 | 44 | 0.0 | 2.0 | 0.00 | 0.01 | 0.01 | 57 | 1018.8 |
| 20260901163437 | 71 | 315 | 0.0 | 3.0 | 0.00 | 0.01 | 0.01 | 55 | 1018.8 |
| 20260901162928 | 72 | 92 | 2.0 | 3.0 | 0.00 | 0.01 | 0.01 | 52 | 1018.9 |
| 20260901161437 | 74 | 284 | 0.0 | 3.0 | 0.00 | 0.01 | 0.01 | 50 | 1018.7 |
| 20260901160437 | 74 | 79 | 1.0 | 3.0 | 0.00 | 0.01 | 0.01 | 50 | 1018.7 |
| 20260901155437 | 74 | 315 | 0.0 | 3.0 | 0.00 | 0.01 | 0.01 | 50 | 1018.5 |
| 20260901154437 | 74 | 19 | 0.0 | 4.0 | 0.00 | 0.01 | 0.01 | 50 | 1018.7 |
| 20260901153440 | 75 | 19 | 0.0 | 3.0 | 0.00 | 0.01 | 0.01 | 49 | 1018.7 |
| 20260901152437 | 75 | 119 | 2.0 | 4.0 | 0.00 | 0.06 | 0.01 | 49 | 1018.4 |
| 20260901151437 | 74 | 277 | 2.0 | 5.0 | 0.00 | 0.07 | 0.01 | 48 | 1018.4 |
| 20260901150438 | 75 | 160 | 2.0 | 4.0 | 0.00 | 0.07 | 0.01 | 48 | 1018.7 |
| 20260901145438 | 75 | 101 | 2.0 | 5.0 | 0.00 | 0.07 | 0.01 | 49 | 1018.6 |
| 20260901144438 | 75 | 247 | 2.0 | 4.0 | 0.00 | 0.07 | 0.01 | 47 | 1018.6 |
| 20260901143437 | 75 | 254 | 0.0 | 4.0 | 0.00 | 0.07 | 0.01 | 49 | 1018.4 |
| 20260901142437 | 74 | 293 | 2.0 | 5.0 | 0.00 | 0.08 | 0.01 | 50 | 1018.5 |
| 20260901141437 | 75 | 312 | 1.0 | 6.0 | 0.00 | 0.08 | 0.01 | 48 | 1018.6 |
| 20260901140437 | 77 | 286 | 4.0 | 4.0 | 0.00 | 0.08 | 0.01 | 46 | 1018.6 |
| 20260901135437 | 75 | 351 | 0.0 | 4.0 | 0.00 | 0.08 | 0.01 | 49 | 1018.5 |